| time (UTC) | temp F | wind direction | speed MPH | gust MPH | rain 1hr in | rain 24hr in | rain mn in | humidity % | barometer mb |
| 20260902100704 | 60 | 103 | 1.0 | 3.0 | 0.00 | 0.00 | 0.00 | 89 | 1008.8 |
| 20260902100204 | 60 | 83 | 2.0 | 3.0 | 0.00 | 0.00 | 0.00 | 89 | 1008.8 |
| 20260902093204 | 61 | 81 | 1.0 | 3.0 | 0.00 | 0.00 | 0.00 | 89 | 1008.8 |
| 20260902090704 | 61 | 154 | 1.0 | 5.0 | 0.00 | 0.00 | 0.00 | 88 | 1008.9 |
| 20260902090205 | 61 | 188 | 1.0 | 3.0 | 0.00 | 0.00 | 0.00 | 89 | 1009.0 |
| 20260902083704 | 61 | 115 | 2.0 | 6.0 | 0.00 | 0.00 | 0.00 | 88 | 1009.3 |
| 20260902083204 | 62 | 128 | 1.0 | 3.0 | 0.00 | 0.00 | 0.00 | 87 | 1009.4 |
| 20260902080703 | 61 | 106 | 1.0 | 3.0 | 0.00 | 0.00 | 0.00 | 87 | 1009.4 |
| 20260902080204 | 61 | 84 | 1.0 | 3.0 | 0.00 | 0.00 | 0.00 | 87 | 1009.4 |
| 20260902073703 | 62 | 83 | 2.0 | 3.0 | 0.00 | 0.00 | 0.00 | 86 | 1009.5 |
| 20260902073205 | 62 | 102 | 2.0 | 7.0 | 0.00 | 0.00 | 0.00 | 86 | 1009.6 |
| 20260902070703 | 62 | 126 | 2.0 | 3.0 | 0.00 | 0.00 | 0.00 | 87 | 1009.7 |
| 20260902070204 | 62 | 111 | 2.0 | 5.0 | 0.00 | 0.00 | 0.00 | 87 | 1009.7 |
| 20260902060704 | 62 | 110 | 2.0 | 3.0 | 0.00 | 0.00 | 0.00 | 87 | 1009.8 |
| 20260902060204 | 62 | 82 | 2.0 | 7.0 | 0.00 | 0.00 | 0.00 | 87 | 1009.8 |
| 20260902053704 | 62 | 84 | 1.0 | 3.0 | 0.00 | 0.00 | 0.00 | 87 | 1010.0 |
| 20260902053204 | 62 | 111 | 2.0 | 7.0 | 0.00 | 0.00 | 0.00 | 87 | 1010.0 |
| 20260902050204 | 62 | 122 | 2.0 | 6.0 | 0.00 | 0.00 | 0.00 | 87 | 1010.1 |
| 20260902043203 | 62 | 92 | 1.0 | 3.0 | 0.00 | 0.00 | 0.00 | 87 | 1010.2 |
| 20260902040704 | 62 | 108 | 2.0 | 3.0 | 0.00 | 0.00 | 0.00 | 87 | 1010.2 |
| 20260902040203 | 62 | 90 | 2.0 | 3.0 | 0.00 | 0.00 | 0.00 | 86 | 1010.2 |
| 20260902033704 | 62 | 128 | 2.0 | 3.0 | 0.00 | 0.00 | 0.00 | 86 | 1010.2 |
| 20260902033204 | 62 | 124 | 2.0 | 5.0 | 0.00 | 0.00 | 0.00 | 86 | 1010.3 |
| 20260902030704 | 62 | 170 | 2.0 | 6.0 | 0.00 | 0.00 | 0.00 | 84 | 1010.1 |
| 20260902030204 | 62 | 162 | 2.0 | 10.0 | 0.00 | 0.00 | 0.00 | 83 | 1010.0 |
| 20260902023704 | 65 | 216 | 5.0 | 10.0 | 0.00 | 0.00 | 0.00 | 79 | 1009.8 |
| 20260902020704 | 66 | 155 | 1.0 | 5.0 | 0.00 | 0.00 | 0.00 | 76 | 1009.7 |
| 20260902020204 | 66 | 158 | 1.0 | 7.0 | 0.00 | 0.00 | 0.00 | 76 | 1009.6 |
| 20260902013704 | 65 | 153 | 1.0 | 3.0 | 0.00 | 0.00 | 0.00 | 77 | 1009.7 |
| 20260902010704 | 66 | 224 | 1.0 | 8.0 | 0.00 | 0.00 | 0.00 | 74 | 1009.7 |
| 20260902010204 | 66 | 198 | 2.0 | 8.0 | 0.00 | 0.00 | 0.00 | 74 | 1009.7 |
| 20260902003704 | 66 | 159 | 3.0 | 7.0 | 0.00 | 0.00 | 0.00 | 74 | 1009.7 |
| 20260902003204 | 66 | 173 | 2.0 | 7.0 | 0.00 | 0.00 | 0.00 | 75 | 1009.8 |
| 20260902000703 | 66 | 254 | 1.0 | 3.0 | 0.00 | 0.00 | 0.00 | 75 | 1009.7 |
| 20260902000204 | 66 | 223 | 3.0 | 9.0 | 0.00 | 0.00 | 0.00 | 75 | 1009.7 |
| 20260901233704 | 66 | 210 | 3.0 | 9.0 | 0.00 | 0.00 | 0.00 | 74 | 1009.7 |
| 20260901230704 | 66 | 186 | 4.0 | 7.0 | 0.00 | 0.00 | 0.00 | 75 | 1009.7 |
| 20260901230204 | 66 | 210 | 1.0 | 10.0 | 0.00 | 0.00 | 0.00 | 76 | 1009.7 |
| 20260901223704 | 66 | 185 | 1.0 | 7.0 | 0.00 | 0.00 | 0.00 | 75 | 1009.8 |
| 20260901220704 | 66 | 232 | 3.0 | 8.0 | 0.00 | 0.00 | 0.00 | 75 | 1009.8 |
| 20260901220204 | 66 | 208 | 4.0 | 12.0 | 0.00 | 0.00 | 0.00 | 74 | 1009.8 |
| 20260901213703 | 66 | 255 | 3.0 | 8.0 | 0.00 | 0.00 | 0.00 | 74 | 1009.7 |
| 20260901213204 | 66 | 226 | 5.0 | 12.0 | 0.00 | 0.00 | 0.00 | 74 | 1009.7 |
| 20260901210205 | 66 | 218 | 2.0 | 9.0 | 0.00 | 0.00 | 0.00 | 74 | 1009.8 |
| 20260901203704 | 66 | 150 | 1.0 | 3.0 | 0.00 | 0.00 | 0.00 | 75 | 1010.0 |
| 20260901203204 | 66 | 130 | 2.0 | 7.0 | 0.00 | 0.00 | 0.00 | 76 | 1010.0 |
| 20260901200704 | 66 | 116 | 0.0 | 3.0 | 0.00 | 0.00 | 0.00 | 75 | 1010.0 |
| 20260901200204 | 66 | 119 | 2.0 | 7.0 | 0.00 | 0.00 | 0.00 | 75 | 1010.0 |
| 20260901193704 | 67 | 144 | 2.0 | 3.0 | 0.00 | 0.00 | 0.00 | 75 | 1010.1 |
| 20260901193205 | 66 | 168 | 3.0 | 6.0 | 0.00 | 0.00 | 0.00 | 75 | 1010.1 |
| 20260901190704 | 66 | 119 | 1.0 | 3.0 | 0.00 | 0.00 | 0.00 | 75 | 1010.2 |
| 20260901183705 | 65 | 238 | 3.0 | 8.0 | 0.00 | 0.00 | 0.00 | 76 | 1010.4 |
| 20260901183204 | 65 | 174 | 3.0 | 7.0 | 0.00 | 0.00 | 0.00 | 75 | 1010.3 |
| 20260901180704 | 65 | 195 | 2.0 | 6.0 | 0.00 | 0.00 | 0.00 | 77 | 1010.2 |
| 20260901173703 | 64 | 160 | 3.0 | 8.0 | 0.00 | 0.00 | 0.00 | 79 | 1010.1 |
| 20260901173203 | 64 | 136 | 2.0 | 7.0 | 0.00 | 0.00 | 0.00 | 79 | 1009.9 |
| 20260901170704 | 62 | 165 | 1.0 | 5.0 | 0.00 | 0.00 | 0.00 | 82 | 1010.1 |
| 20260901170204 | 62 | 162 | 2.0 | 6.0 | 0.00 | 0.00 | 0.00 | 82 | 1010.1 |
| 20260901163704 | 61 | 151 | 3.0 | 9.0 | 0.00 | 0.00 | 0.00 | 84 | 1010.3 |
| 20260901163204 | 61 | 163 | 2.0 | 10.0 | 0.00 | 0.00 | 0.00 | 84 | 1010.3 |
| 20260901160204 | 61 | 148 | 3.0 | 8.0 | 0.00 | 0.00 | 0.00 | 84 | 1010.2 |
| 20260901153704 | 60 | 178 | 1.0 | 3.0 | 0.00 | 0.00 | 0.00 | 86 | 1010.5 |
| 20260901153204 | 60 | 168 | 2.0 | 10.0 | 0.00 | 0.00 | 0.00 | 86 | 1010.4 |
| 20260901150204 | 60 | 170 | 3.0 | 6.0 | 0.00 | 0.00 | 0.00 | 86 | 1010.4 |
| 20260901143704 | 59 | 162 | 2.0 | 8.0 | 0.00 | 0.00 | 0.00 | 86 | 1010.1 |
| 20260901133704 | 59 | 236 | 2.0 | 5.0 | 0.00 | 0.00 | 0.00 | 86 | 1009.7 |
| 20260901130704 | 58 | 120 | 1.0 | 3.0 | 0.00 | 0.00 | 0.00 | 85 | 1009.7 |
| 20260901130204 | 59 | 120 | 1.0 | 5.0 | 0.00 | 0.00 | 0.00 | 85 | 1009.6 |
| 20260901123703 | 59 | 153 | 1.0 | 2.0 | 0.00 | 0.00 | 0.00 | 84 | 1009.5 |
| 20260901123204 | 60 | 153 | 1.0 | 3.0 | 0.00 | 0.00 | 0.00 | 83 | 1009.5 |
| 20260901120205 | 59 | 145 | 1.0 | 3.0 | 0.00 | 0.00 | 0.00 | 85 | 1009.2 |
| 20260901113704 | 59 | 24 | 0.0 | 0.0 | 0.00 | 0.00 | 0.00 | 85 | 1008.9 |
| 20260901113204 | 59 | 24 | 0.0 | 0.0 | 0.00 | 0.00 | 0.00 | 85 | 1009.0 |
| 20260901110204 | 59 | 24 | 0.0 | 0.0 | 0.00 | 0.00 | 0.00 | 84 | 1008.9 |
| 20260901103704 | 60 | 24 | 0.0 | 0.0 | 0.00 | 0.00 | 0.00 | 83 | 1008.9 |
| 20260901103204 | 60 | 24 | 0.0 | 0.0 | 0.00 | 0.00 | 0.00 | 84 | 1008.8 |